Regional Weather Roundup
Issued by NWS

Home | Current Version | Previous Version | Graphics & Text | Print | Product List | Glossary On
Versions: 1 2 3 4 5 6 7 8 9 10 11 12 13 14 15 16 17 18 19 20 21 22 23 24 25 26 27 28 29 30 31 32 33 34 35 36 37 38 39 40 41 42 43 44 45 46 47 48 49 50
000
ASUS43 KLOT 210608
RWRIL

ILLINOIS REGIONAL WEATHER ROUNDUP
NATIONAL WEATHER SERVICE CHICAGO/ROMEOVILLE IL
1200 AM CST TUE FEB 21 2017

NOTE: "FAIR" INDICATES FEW OR NO CLOUDS BELOW 12,000 FEET WITH NO
SIGNIFICANT WEATHER AND/OR OBSTRUCTIONS TO VISIBILITY.

* THESE STATIONS ARE NOT UNDER NWS QUALITY CONTROL. THEY ALSO MAY NOT
  REPORT WEATHER SUCH AS PRECIPITATION OR FOG.

ILZ001-002-007-009-015-016-024-210700-
NORTHWEST ILLINOIS

CITY           SKY/WX    TMP DP  RH WIND       PRES   REMARKS
MOLINE         LGT RAIN  59  55  87 S3        29.89R
6HR MIN TEMP:  59; 6HR MAX TEMP:  70; 6HR PCP:  0.20;

STERLING*      CLOUDY    56  55  97 CALM      29.92R FOG
SAVANNA*       DRIZZLE   54  53  97 SE8       29.88F
$$

ILZ003-004-008-010-011-017-018-210700-
NORTH CENTRAL ILLINOIS

CITY           SKY/WX    TMP DP  RH WIND       PRES   REMARKS
ROCKFORD       RAIN      55  53  93 S5        29.92S FOG
6HR MIN TEMP:  55; 6HR MAX TEMP:  65; 6HR PCP:  0.05;

FREEPORT*      LGT RAIN  55  54  98 SW6       29.91S
ROCHELLE*      LGT RAIN  55  51  87 SW5       29.92R
DE KALB*       CLOUDY    54  49  83 S9        29.92S
PERU*          CLOUDY    59  50  71 SW8       29.92R
$$

ILZ005-006-012>014-019>023-210700-
NORTHEAST ILLINOIS

CITY           SKY/WX    TMP DP  RH WIND       PRES   REMARKS
CHICAGO-OHARE  CLOUDY    60  46  59 S13       29.91R
6HR MIN TEMP:  60; 6HR MAX TEMP:  65;

CHICAGO-MIDWAY CLOUDY    60  45  57 S13       29.92S
6HR MIN TEMP:  59; 6HR MAX TEMP:  64;

AURORA         CLOUDY    57  48  72 S7        29.92R
6HR MIN TEMP:  57; 6HR MAX TEMP:  64;

LANSING*       CLOUDY    56  49  77 S9        29.94S
JOLIET*        CLOUDY    58  48  68 S7        29.93R
WAUKEGAN       MOCLDY    58  45  62 S13       29.89S
6HR MIN TEMP:  53; 6HR MAX TEMP:  59;

DUPAGE AIRPORT CLOUDY    56  45  66 S7        29.91R
6HR MIN TEMP:  56; 6HR MAX TEMP:  64;

KANKAKEE*      CLOUDY    56  46  70 SE5       29.95R
WHEELING       CLOUDY    58  44  60 S14       29.91F
6HR MIN TEMP:  58; 6HR MAX TEMP:  63;

MORRIS*        MOCLDY    56  47  72 CALM      29.92R
ROMEOVILLE*    CLOUDY    55  49  81 S8        29.92S
NORTHERLY ISL    N/A     58  45  62 SE12        N/A
$$

LMZ740>746-210700-
SOUTHERN LAKE MICHIGAN

STATION/POSITION SKY/WX   TEMP    WIND        PRES    VSBY  WAVE
                          AIR SEA DIR/SP/G                  HT/PER
                          (F)     (DEG/KT/KT) (MB)    (MI)  (FT/S)
HARRISON CRIB              55     180/ 18/ 19   N/A
BURNHAM HARBOR             58     160/  6/ 13   N/A
CALUMET HARBOR                    160/ 11/ 14 1012.9R
BURNS HARBOR               58     170/ 14/ 24 1014.2S
MICHIGAN CITY              57     130/ 14/ 17   N/A
$$

ILZ025>027-034>036-040-047-049-050-058-095>099-210700-
WEST-CENTRAL ILLINOIS

CITY           SKY/WX    TMP DP  RH WIND       PRES   REMARKS
QUINCY         LGT RAIN  60  60 100 SE5       29.92S FOG
GALESBURG*     RAIN      57  57  99 CALM      29.92F
MACOMB*        RAIN      58  58  98 CALM      29.95R
JACKSONVILLE*  CLOUDY    63  54  72 SW7       29.92S
PITTSFIELD*    DRIZZLE   60  59  99 CALM      29.93S
$$

ILZ028>032-037-038-041>044-048-051>054-059>061-210700-
CENTRAL ILLINOIS

CITY           SKY/WX    TMP DP  RH WIND       PRES   REMARKS
PONTIAC        CLOUDY    60  53  78 S12       29.93S
BLOOMINGTON    CLOUDY    56  50  80 S8        29.94R
DECATUR        CLOUDY    59  49  69 S9        29.93S
PEORIA         MOCLDY    59  52  77 W3        29.92S
6HR MIN TEMP:  58; 6HR MAX TEMP:  69;

LACON*         CLOUDY    59  51  75 CALM      29.91S
LINCOLN*       PTCLDY    60  53  76 CALM      29.92S
SPRINGFIELD    CLOUDY    63  52  67 S9        29.92S
6HR MIN TEMP:  63; 6HR MAX TEMP:  70;

TAYLORVILLE    CLOUDY    60  51  71 S7        29.93S
6HR MIN TEMP:  60; 6HR MAX TEMP:  67;

$$

ILZ033-039-045-046-055>057-062-063-210700-
EAST-CENTRAL ILLINOIS

CITY           SKY/WX    TMP DP  RH WIND       PRES   REMARKS
CHAMPAIGN      MOCLDY    57  48  72 S9        29.95R
RANTOUL*       CLOUDY    56  49  79 SE5       29.94S
MATTOON        CLOUDY    60  49  66 S9        29.94R
PARIS*         PTCLDY    54  48  80 SE8       29.96F
$$

ILZ079-100>102-210700-
SOUTHWEST ILLINOIS

CITY           SKY/WX    TMP DP  RH WIND       PRES   REMARKS
ALTON          CLOUDY    60  52  73 CALM      29.93F
BELLEVILLE     CLOUDY    61  53  76 CALM      29.91F
CAHOKIA*       CLOUDY    62  52  69 W3        29.92S
SPARTA*        CLOUDY    61  51  70 SE6       29.94F
$$

ILZ064>066-069>071-074>076-080>082-084>086-088>090-092>094-210700-
SOUTH-CENTRAL ILLINOIS

CITY           SKY/WX    TMP DP  RH WIND       PRES   REMARKS
CARBONDALE     CLOUDY    63  51  65 SE7       29.93F
6HR MIN TEMP:  61; 6HR MAX TEMP:  67;

CAIRO*         CLOUDY    62  51  67 SE6       29.93F
EFFINGHAM*     CLOUDY    60  51  70 SE8       29.96S
MARION         MOCLDY    63  52  67 S6        29.95R
MT. VERNON     CLOUDY    61  50  67 S3        29.93F
CENTRALIA*     CLOUDY    63  52  67 SE9       29.91F
SALEM*         CLOUDY    64  50  60 S7        29.93S
METROPOLIS*    CLOUDY    56  51  81 CALM      29.95F
$$

ILZ067-068-072-073-078-083-087-091-210700-
SOUTHEAST ILLINOIS

CITY           SKY/WX    TMP DP  RH WIND       PRES   REMARKS
LAWRENCEVILLE  CLOUDY    56  46  69 SE8       29.96F
FLORA*         MOCLDY    59  50  73 S9        29.94F
FAIRFIELD*     MOCLDY    61  49  64 CALM      29.93F
HARRISBURG*    CLOUDY    55  51  87 SE5       29.96F
ROBINSON*      MOCLDY    55  47  74 S8        29.97S
CARMI*         CLOUDY    55  49  80 CALM      29.95F
$$

ABBREVIATIONS USED IN REMARKS
   TC - TEMPERATURE IN CELSIUS
  WCI - WIND CHILL INDEX
   HX - HEAT INDEX
  VSB - VISIBILITY
$$




USA.gov is the U.S. government's official web portal to all federal, state and local government web resources and services.